Tracking 22879 objects as of 23-Apr-2021
HD Live streaming from Space Station
objects crossing your sky now

FREGAT DEB

Track FREGAT DEB now!
10-day predictions


NORAD ID: 44608
Int'l Code: 2017-042CB
Perigee: 495.0 km
Apogee: 602.8 km
Inclination: 97.6 °
Period: 95.5 minutes
Semi major axis: 6919 km
RCS: Unknown
Launch date: July 14, 2017
Source: Commonwealth of Independent States (former USSR) (CIS)
Launch site: TYURATAM MISSILE AND SPACE COMPLEX (TTMTR)

Note: This is SATELLITE DEBRIS
aabbcc
Your satellite tracking list
Your tracking list is empty




NASA's NSSDC Master Catalog

Two Line Element Set (TLE):
1 44608U 17042CB  21112.18322236  .00001148  00000-0  73429-4 0  9993
2 44608  97.5601  22.4139 0077922 166.1735 194.1652 15.08180581182386
Source of the keplerian elements: AFSPC